Location: Praha
(50.0830°N, 14.4670°E)
Time: 00:22:45
(UTC+02:00)

ISS - Pass Details

Date: 22 September 2023
Orbit: 414 x 421 km, 51.6° (Epoch: 25 September)

Event Time Altitude Azimuth Distance (km) Brightness Sun altitude
Rises 20:01:00 0° 266° (W) 2,349 1.7 -10.4°
Reaches altitude 10° 20:03:06 10° 270° (W) 1,488 0.5 -10.7°
Maximum altitude 20:06:25 68° 353° (N) 452 -3.6 -11.2°
Enters shadow 20:08:58 16° 75° (ENE) 1,174 -2.0 -11.6°
